Location: Bodest
(46.3000°N, 22.5667°E)
Time: 02:01:05
(UTC+00:00)

CSL-04 Debris - Pass Details

Date: 16 October 2021
Orbit: 827 x 847 km, 98.9° (Epoch: 02 December)

Event Time Altitude Azimuth Distance (km) Brightness Sun altitude
Exits shadow 17:26:55 19° 146° (SSE) 1,862 5.6 -19.0°
Maximum altitude 17:30:43 62° 71° (ENE) 929 4.1 -19.6°
Drops below altitude 10° 17:36:03 10° 352° (N) 2,449 6.8 -20.5°
Sets 17:38:26 0° 349° (N) 3,389 7.6 -20.9°
